Location: Newark
(43.4306°N, 0.3089°E)
Time: 14:14:36
(UTC+00:00)

S-56A Canister/Altair - Pass Details

Date: 22 August 2019
Orbit: 633 x 2499 km, 38.9° (Epoch: 21 September)

Event Time Altitude Azimuth Distance (km) Brightness Sun altitude
Rises 00:43:02 0° 269° (W) 2,931 - -33.8°
Reaches altitude 10° 00:45:15 10° 262° (W) 2,071 - -33.8°
Maximum altitude 00:49:37 42° 191° (SSW) 1,058 - -33.6°
Drops below altitude 10° 00:55:11 10° 122° (ESE) 2,644 - -33.3°
Sets 00:58:23 0° 116° (ESE) 3,859 - -33.2°
